ARIANE 6 R/B

Satellite information

Favourite Embed

Satellite Type and Status

ROCKET BODYIN ORBIT

Key statistics

Satellite ARIANE 6 R/B at a glance.

Uptime

479

Days in orbit

Revolutions

≈ 15.0

Per day

Orbit

LEO

Low Earth Orbit

Inclination

62.0

Latest

Satellite identification and parameters

Extended collection of information and parameters for ARIANE 6 R/B.

Object identification

Identified? True

Debris? False

Object name: ARIANE 6 R/B

International designator: 2024-128E

Object number (NORAD): 60239

Object ID (CCSDS): 60239

Country: FRANCE (FR)

Current information (Y/N): Y

RCS size: LARGE

Orbital parameters

Period: 96.029 minutes

Inclination: 62.0116 deg

SMA: 6946.446 km

Apoapsis: 609.074 km

Periapsis: 527.548 km

RAAN: 312.4736 deg

Eccentricy: 0.00586814

Argument of periapsis: 88.5079 deg

Mean anomaly: 272.2732 deg

Mean motion: 14.995425 rev/day

Mean motion (dot): 0.00001843 rev/day2

B* drag term: 0.00016080509 1/REarth

Two-line elements (TLE)

Creation date: Oct. 30, 2025, 3:32 a.m.

Reference frame: TEME

Reference center: EARTH

Epoch: Oct. 29, 2025, 8:57 a.m. UTC

TLE line 0: 0 ARIANE 6 R/B

TLE line 1: 1 60239U 24128E 25302.37319548 .00001843 00000-0 16081-3 0 9994

TLE line 2: 2 60239 62.0116 312.4736 0058681 88.5079 272.2732 14.99542500 71405

Live tracking on map

Real-time ground track for satellite ARIANE 6 R/B.

In-orbit conjunctions

A list of the most updated potential collisions computed for object ARIANE 6 R/B.

Target Orbit TCA Probability of collision Miss distance Type
TIROS 6 LEO 2025-01-05 17:56:57 0.001787452 471.0 (m) PAYLOAD

Associated space launch

Maiden Flight of the Ariane 62 launch vehicle, carrying ten cubesats, two deployers, five experiments, and two reentry capsules.

ARIANE 6 R/B was lifted into orbit during the mission ‘Ariane 62 | Maiden Flight’, on board a Ariane 62 space rocket.

The launch took place on July 9, 2024, 7 p.m. from Ariane Launch Area 4.

For more information about the launch, click the button.

Launch to space Ariane 62 | Maiden Flight
Ariane 62 | Maiden Flight

Agency: European Space Agency

Status: Launch Successful

Launch date: July 9, 2024, 7 p.m. UTC

Rocket: Ariane 62

Launch pad: Ariane Launch Area 4

Location: Guiana Space Centre, French Guiana

...

Latest news about this satellite

News about space launch
ESA 2024 Highlights: flight of the Ariane 6

In 2024, ESA continued to drive Europe’s innovation and excellence in space, equipping the continent with advanced tools and knowledge to address global and local challenges. The year saw pioneering missions, cutting-edge satellites and the pivotal restor...

News about space launch
Europe lifts off from its launcher crisis

For the European space industry, the deafening rumble of the ascending rocket was a sigh of relief. On the afternoon of July 9, an Ariane 6 lifted off on a […]

News about space launch
Ariane 6 joint update report, 16 September 2024

The Ariane 6 Launcher Task Force consists of top management of ESA, as the overall Ariane 6 procuring entity and launch system architect, of the French space agency CNES as the launch base prime contractor, of ArianeGroup as the launcher system prime cont...


Newsletter sign-up

Weekly statistics, charts and insights to help you stay on top of the space industry.